{"data":{"norad_id":43794,"intl_designator":"2018-099AN","name":"HAWK-B","alt_names":[],"object_type":"PAYLOAD","status":"ACTIVE","operator":null,"country":"US","launch_date":"2018-12-03","launch_site_code":"AFWTR","launch_vehicle":null,"mission":null,"orbit_class":"UNKNOWN","rcs_meters":null,"size_class":null,"mass_kg":null,"dimensions":null,"purposes":["tech_demo"],"wikipedia_slug":null,"has_3d_model":false,"image_url":null,"decayed_at":null,"tle_current":{"epoch":"2026-09-20T02:13:04.728576Z","epoch_age_seconds":49704,"freshness":"FRESH","line1":"1 43794U 18099AN  26263.09241584  .00003830  00000+0  16021-3 0  9992","line2":"2 43794  97.3867 313.3170 0030333 332.6891  27.2750 15.23780527427489","mean_motion":15.23780527,"eccentricity":0.0030333,"inclination_deg":97.3867,"raan_deg":313.317,"arg_perigee_deg":332.6891,"mean_anomaly_deg":27.275,"bstar":0.00016021,"rev_number":42748,"period_min":94.501798289486,"perigee_km":473.60310119396,"apogee_km":515.29633578033,"semimajor_km":6872.5867184871,"source":"CELESTRAK","updated_at":"2026-09-20T09:00:47.447064Z"}}}